TimeEST,TemperatureF,Dew PointF,Humidity,Sea Level PressureIn,VisibilityMPH,Wind Direction,Wind SpeedMPH,Gust SpeedMPH,PrecipitationIn,Events,Conditions,WindDirDegrees,DateUTC
12:15 AM,33.4,30.9,90,30.24,7.0,Calm,Calm,-,N/A,,Clear,0,2012-11-10 05:15:00
12:35 AM,32.4,29.8,90,30.24,7.0,Calm,Calm,-,N/A,,Clear,0,2012-11-10 05:35:00
12:55 AM,32.2,29.8,91,30.24,7.0,Calm,Calm,-,N/A,,Clear,0,2012-11-10 05:55:00
1:15 AM,32.5,30.2,91,30.25,7.0,Calm,Calm,-,N/A,,Clear,0,2012-11-10 06:15:00
1:35 AM,32.0,29.7,91,30.25,5.0,Calm,Calm,-,N/A,,Clear,0,2012-11-10 06:35:00
1:55 AM,32.2,30.4,93,30.25,7.0,Calm,Calm,-,N/A,,Clear,0,2012-11-10 06:55:00
2:15 AM,31.3,28.9,91,30.25,7.0,Calm,Calm,-,N/A,,Clear,0,2012-11-10 07:15:00
2:35 AM,30.9,28.2,90,30.26,7.0,Calm,Calm,-,N/A,,Clear,0,2012-11-10 07:35:00
2:55 AM,29.7,27.3,91,30.26,7.0,Calm,Calm,-,N/A,,Clear,0,2012-11-10 07:55:00
3:15 AM,30.6,28.0,90,30.26,7.0,Calm,Calm,-,N/A,,Clear,0,2012-11-10 08:15:00
3:35 AM,29.7,27.1,90,30.27,5.0,Calm,Calm,-,N/A,,Clear,0,2012-11-10 08:35:00
3:55 AM,28.9,26.4,90,30.28,7.0,Calm,Calm,-,N/A,,Clear,0,2012-11-10 08:55:00
4:15 AM,27.7,25.2,90,30.28,7.0,Calm,Calm,-,N/A,,Clear,0,2012-11-10 09:15:00
4:35 AM,28.2,25.5,90,30.29,7.0,Calm,Calm,-,N/A,,Clear,0,2012-11-10 09:35:00
4:55 AM,28.4,26.2,92,30.30,7.0,Calm,Calm,-,N/A,,Clear,0,2012-11-10 09:55:00
5:15 AM,29.7,27.0,90,30.31,7.0,Calm,Calm,-,N/A,,Clear,0,2012-11-10 10:15:00
5:35 AM,30.2,27.7,90,30.31,7.0,Calm,Calm,-,N/A,,Clear,0,2012-11-10 10:35:00
5:55 AM,30.6,28.2,91,30.32,7.0,Calm,Calm,-,N/A,,Clear,0,2012-11-10 10:55:00
6:15 AM,31.5,29.1,91,30.32,7.0,Calm,Calm,-,N/A,,Clear,0,2012-11-10 11:15:00
7:35 AM,33.6,31.1,90,30.33,7.0,Calm,Calm,-,N/A,,Scattered Clouds,0,2012-11-10 12:35:00
7:55 AM,34.5,31.8,90,30.33,7.0,Calm,Calm,-,N/A,,Mostly Cloudy,0,2012-11-10 12:55:00
8:15 AM,35.4,31.8,87,30.33,7.0,Calm,Calm,-,N/A,,Scattered Clouds,0,2012-11-10 13:15:00
8:35 AM,36.7,32.0,83,30.34,7.0,Calm,Calm,-,N/A,,Clear,0,2012-11-10 13:35:00
8:55 AM,39.7,32.0,74,30.34,10.0,Calm,Calm,-,N/A,,Clear,0,2012-11-10 13:55:00
9:15 AM,43.0,32.4,66,30.34,10.0,Calm,Calm,-,N/A,,Clear,0,2012-11-10 14:15:00
9:35 AM,45.0,32.7,62,30.33,10.0,Calm,Calm,-,N/A,,Scattered Clouds,0,2012-11-10 14:35:00
9:55 AM,48.4,30.9,51,30.33,10.0,Calm,Calm,-,N/A,,Clear,0,2012-11-10 14:55:00
10:35 AM,53.6,31.1,42,30.32,10.0,Calm,Calm,-,N/A,,Clear,0,2012-11-10 15:35:00
10:55 AM,56.3,33.1,41,30.32,10.0,Calm,Calm,-,N/A,,Clear,0,2012-11-10 15:55:00
11:15 AM,58.8,32.9,38,30.31,10.0,Calm,Calm,-,N/A,,Clear,0,2012-11-10 16:15:00
11:35 AM,60.8,32.4,34,30.30,10.0,Calm,Calm,-,N/A,,Clear,0,2012-11-10 16:35:00
11:55 AM,62.2,31.5,31,30.29,10.0,Calm,Calm,-,N/A,,Clear,0,2012-11-10 16:55:00
12:15 PM,64.6,28.4,26,30.28,10.0,Calm,Calm,-,N/A,,Clear,0,2012-11-10 17:15:00
12:35 PM,67.3,31.1,26,30.27,10.0,Calm,Calm,-,N/A,,Clear,0,2012-11-10 17:35:00
12:55 PM,68.0,31.5,26,30.25,10.0,Calm,Calm,-,N/A,,Clear,0,2012-11-10 17:55:00
1:15 PM,70.5,32.0,24,30.25,10.0,Calm,Calm,-,N/A,,Clear,0,2012-11-10 18:15:00
1:35 PM,72.0,30.9,22,30.24,10.0,Calm,Calm,-,N/A,,Clear,0,2012-11-10 18:35:00
1:55 PM,72.5,29.8,21,30.23,10.0,Calm,Calm,-,N/A,,Clear,0,2012-11-10 18:55:00
2:15 PM,73.0,29.7,20,30.23,10.0,Calm,Calm,-,N/A,,Clear,0,2012-11-10 19:15:00
2:35 PM,74.3,31.6,21,30.22,10.0,Calm,Calm,-,N/A,,Clear,0,2012-11-10 19:35:00
2:55 PM,74.7,32.4,21,30.22,10.0,Calm,Calm,-,N/A,,Clear,0,2012-11-10 19:55:00
3:15 PM,74.5,33.4,22,30.23,10.0,Calm,Calm,-,N/A,,Clear,0,2012-11-10 20:15:00
3:35 PM,74.3,32.4,21,30.22,10.0,Calm,Calm,-,N/A,,Clear,0,2012-11-10 20:35:00
3:55 PM,74.3,33.8,23,30.23,10.0,Calm,Calm,-,N/A,,Clear,0,2012-11-10 20:55:00
4:15 PM,71.8,35.1,26,30.23,10.0,Calm,Calm,-,N/A,,Clear,0,2012-11-10 21:15:00
4:35 PM,68.4,35.8,30,30.24,10.0,Calm,Calm,-,N/A,,Clear,0,2012-11-10 21:35:00
4:55 PM,62.8,39.9,43,30.24,10.0,Calm,Calm,-,N/A,,Clear,0,2012-11-10 21:55:00
5:15 PM,57.9,38.8,49,30.25,10.0,Calm,Calm,-,N/A,,Clear,0,2012-11-10 22:15:00
5:35 PM,55.2,40.6,58,30.25,10.0,WNW,5.8,-,N/A,,Clear,290,2012-11-10 22:35:00
5:55 PM,52.2,40.5,64,30.26,10.0,WNW,5.8,-,N/A,,Clear,300,2012-11-10 22:55:00
6:15 PM,49.6,39.4,68,30.27,10.0,WNW,4.6,-,N/A,,Clear,300,2012-11-10 23:15:00
6:35 PM,51.1,40.3,67,30.27,10.0,Calm,Calm,-,N/A,,Clear,0,2012-11-10 23:35:00
6:55 PM,48.2,37.6,67,30.28,10.0,Calm,Calm,-,N/A,,Clear,0,2012-11-10 23:55:00
7:15 PM,49.8,38.1,64,30.29,10.0,Calm,Calm,-,N/A,,Clear,0,2012-11-11 00:15:00
7:35 PM,46.8,38.5,73,30.29,10.0,Calm,Calm,-,N/A,,Clear,0,2012-11-11 00:35:00
7:55 PM,45.5,36.3,70,30.30,10.0,Calm,Calm,-,N/A,,Clear,0,2012-11-11 00:55:00
8:15 PM,45.0,37.4,75,30.30,10.0,Calm,Calm,-,N/A,,Clear,0,2012-11-11 01:15:00
8:35 PM,43.2,36.1,76,30.31,10.0,Calm,Calm,-,N/A,,Clear,0,2012-11-11 01:35:00
8:55 PM,43.0,36.7,78,30.32,10.0,Calm,Calm,-,N/A,,Clear,0,2012-11-11 01:55:00
9:15 PM,42.1,35.4,77,30.33,10.0,Calm,Calm,-,N/A,,Clear,0,2012-11-11 02:15:00
9:35 PM,41.4,36.1,82,30.34,10.0,Calm,Calm,-,N/A,,Clear,0,2012-11-11 02:35:00
9:55 PM,40.1,34.0,79,30.35,10.0,Calm,Calm,-,N/A,,Clear,0,2012-11-11 02:55:00
10:15 PM,39.9,35.2,83,30.35,10.0,Calm,Calm,-,N/A,,Clear,0,2012-11-11 03:15:00
10:35 PM,39.7,35.4,85,30.35,10.0,Calm,Calm,-,N/A,,Clear,0,2012-11-11 03:35:00
11:15 PM,38.8,34.9,86,30.36,10.0,Calm,Calm,-,N/A,,Clear,0,2012-11-11 04:15:00
11:35 PM,38.7,35.2,87,30.36,10.0,Calm,Calm,-,N/A,,Clear,0,2012-11-11 04:35:00
11:55 PM,36.9,33.3,87,30.36,10.0,Calm,Calm,-,N/A,,Clear,0,2012-11-11 04:55:00